Other Public Products
Issued by NWS Grand Forks, ND

Home | Current Version | Previous Version | Text Only | Print | Product List | Glossary Off
Versions: 1 2 3 4 5 6 7 8 9 10 11 12 13 14 15 16 17 18 19 20 21 22 23 24 25 26 27 28 29 30 31 32 33 34 35 36 37 38 39 40 41 42 43 44 45 46 47 48 49 50

000
FPUS83 KFGF 161731
OPUFGF
PRAIRIE TO PINES WEATHER ROUNDUP
NATIONAL WEATHER SERVICE EASTERN NORTH DAKOTA/GRAND FORKS ND
1100 AM CST SAT DEC 16 2017

 **SATELLITE DATA USED TO AUGMENT SKY COVER AT AUTOMATED STATIONS**
 *****  WEATHER ACROSS EASTERN NORTH DAKOTA  *****

CITY           SKY/WX    TMP DP  RH WIND       PRES   REMARKS
GRAND FORKS    CLOUDY    24  20  84 SW6       29.88R WCI  17
GRND FORKS AFB CLOUDY    25  19  80 W6        29.89R WCI  18
GRND FORKS NWS   N/A     23 N/A N/A W7          N/A  WCI  15
BUXTON           N/A     26  25  96 W5          N/A  WCI  20
DEVILS LAKE    CLOUDY    30  28  92 N6        29.87R WCI  24
FARGO          CLOUDY    28  24  85 S5        29.89R WCI  23
WAHPETON ARPT  CLOUDY    28  25  86 CALM      29.91R
$$

 *****  WEATHER ACROSS CENTRAL AND WESTERN NORTH DAKOTA  *****

CITY           SKY/WX    TMP DP  RH WIND       PRES   REMARKS
JAMESTOWN      FAIR      38  33  82 NW10      29.86R
BISMARCK       PTSUNNY   39  33  79 NW15G22   29.92R
MINOT          CLOUDY    36  29  75 W15       29.88R
MINOT AFB      FAIR      35  29  79 NW14      29.86R
GARRISON         N/A     34  30  85 NW14      29.90R WCI  25
WILLISTON      FAIR      30  21  69 CALM      29.95R
DICKINSON      FAIR      31  26  82 NW16      29.92R WCI  20
HETTINGER      FAIR      31  26  82 W15       29.95R WCI  20
$$

 *****  OTHER OBSERVATIONS NORTHEAST NORTH DAKOTA  *****

CITY           SKY/WX    TMP DP  RH WIND       PRES   REMARKS
WALHALLA       FAIR      19  19 100 SE5       29.87R WCI  13
LANGDON        CLOUDY    27  27 100 NW15      29.84R WCI  15
CAVALIER       CLOUDY    19  19 100 S3        29.87R FOG
GRAFTON        CLOUDY    21  21 100 SW6       29.91R WCI  14
CANDO          CLOUDY    32  30  93 NW12      29.89R WCI  23
FORT TOTTEN      N/A     35  33  91 NW6       29.95S
ROLLA          PTSUNNY   27  25  93 NW9       29.85R WCI  17
RUGBY          CLOUDY    34  28  80 NW10      29.87R
 ***** THE ABOVE OBSERVATIONS ARE NON NWS ARE NOT QUALITY
        CONTROLLED AND MAY MIS-REPORT RAIN FOR SNOW...
$$

 *****  OTHER OBSERVATIONS SOUTHEAST NORTH DAKOTA *****

CITY           SKY/WX    TMP DP  RH WIND       PRES   REMARKS
COOPERSTOWN    PTSUNNY   32  32 100 W5        29.86S
VALLEY CITY    PTSUNNY   34  34 100 NW9       29.87S
OAKES            N/A     39  37  93 NW13      29.88S
GWINNER          N/A     34  32  93 NW3       29.88S
SHEYENNE NWR     N/A     29  29 100 CALM      29.95S
BUFFALO          N/A     28  27  96 W2          N/A
WYNDMERE       NOT AVBL
 ***** THE ABOVE OBSERVATIONS ARE NON NWS ARE NOT QUALITY
       CONTROLLED AND MAY MIS-REPORT RAIN FOR SNOW...
$$

  *****  WEATHER ACROSS NORTHERN MINNESOTA  *****

CITY           SKY/WX    TMP DP  RH WIND       PRES   REMARKS
FLAG ISLAND    FLURRIES   5   0  78 SE7       29.91F WCI  -7
WARROAD        CLOUDY    10   7  85 E8        29.90F FOG     WCI  -1
ROSEAU         LGT SNOW  12   9  85 E6        29.89S WCI   3
HALLOCK        CLOUDY    18  16  93 SE7       29.89R WCI   8
THF RVR FALLS  CLOUDY    20  17  88 SE6       29.88R WCI  12
HALSTAD        NOT AVBL
FOSSTON        CLOUDY    21  18  86 S7        29.87S WCI  13
BAUDETTE       FLURRIES   6   2  83 E9        29.92R WCI  -8
WASKISH        CLOUDY    12  10  92 E9        29.88F WCI   0
CROOKSTON      CLOUDY    25  21  86 SW8       29.90R WCI  16
$$
  *****  WEATHER ACROSS CENTRAL AND WEST MINNESOTA  *****

CITY           SKY/WX    TMP DP  RH WIND       PRES   REMARKS
BEMIDJI        CLOUDY    18  15  86 SE9       29.88R WCI   7
PARK RAPIDS    CLOUDY    20  16  84 E3        29.87R
WADENA         CLOUDY    21  18  86 SE5       29.87S WCI  15
DETROIT LAKES  CLOUDY    25  23  93 SE5       29.88R WCI  19
MOORHEAD       PTSUNNY   27  21  80 CALM      29.91R
FERGUS FALLS   PTSUNNY   27  21  80 CALM      29.92R
ELBOW LAKE     CLOUDY    26  23  88 E3        29.89R FOG
MORRIS MN      PTSUNNY   28  25  86 CALM      29.87S
STAPLES        CLOUDY    21  18  86 CALM      29.88R
WHEATON        CLOUDY    30  27  86 CALM      29.91R
$$
  *****  WEATHER ELSEWHERE ACROSS MINNESOTA  *****

CITY           SKY/WX    TMP DP  RH WIND       PRES   REMARKS
DULUTH         CLOUDY    18  11  74 E17       29.91R WCI   3
INTRNTL FALLS  HVY SNOW   3  -2  79 E9        29.94F VSB 1/4 WCI -12
ELY            FLURRIES   7   3  85 CALM      29.94F
CLOQUET        CLOUDY    19   7  58 E10       29.90F WCI   8
BRAINERD       CLOUDY    22  16  78 VRB6      29.88R WCI  14
HIBBING        LGT SNOW  19  15  84 SE9       29.91R FOG     WCI   8
ALEXANDRIA     CLOUDY    24  22  91 SE3       29.88R FOG
SAINT CLOUD    CLOUDY    23  19  85 NE7       29.87R WCI  15
MINNEAPOLIS    CLOUDY    28  25  88 E7        29.87R WCI  21
$$

  *****  WEATHER ACROSS SOUTH DAKOTA  *****

CITY           SKY/WX    TMP DP  RH WIND       PRES   REMARKS
SIOUX FALLS    PTSUNNY   42  32  67 N6        29.86R
BROOKINGS      PTSUNNY   38  32  79 MISG        N/A
WATERTOWN      PTSUNNY   37  34  89 NW10      29.86R
HURON          CLOUDY    40  33  76 NW10      29.90R
SISSETON         N/A     36  30  79 NW9       29.87R
ABERDEEN       CLOUDY    40  35  83 N9        29.90R
MITCHELL       FAIR      40  31  70 N14       29.91R
PIERRE         FAIR      40  33  76 NW15      29.92R
MOBRIDGE       FAIR      37  31  78 N9        29.90R
RAPID CITY     LGT RAIN  36  32  85 N15       29.96S
$$

  *****  SOME WEATHER IN NEARBY STATES *****

CITY           SKY/WX    TMP DP  RH WIND       PRES   REMARKS
GLASGOW MT     CLOUDY    25  22  88 W6        29.99R WCI  18
GREAT FALLS MT CLOUDY    30  27  88 N6        30.00R WCI  24
CHEYENNE WY    FAIR      34  17  50 N12       29.87R
SCOTTSBLUFF NE FAIR      41  22  46 NE15G24   29.88R
OMAHA NE       PTSUNNY   44  23  43 N7        29.85R
DES MOINES IA  FAIR      45  25  45 W7        29.84R
DAVENPORT IA   FAIR      45  26  47 SW12      29.88R
CHICAGO IL     FAIR      41  25  53 SW10      29.89F
EAU CLAIRE WI  CLOUDY    22  16  78 E9        29.88F WCI  12
LA CROSSE WI   FAIR      30  24  78 E7        29.88R WCI  23
$$

  *****  SOME NATIONAL WEATHER *****

CITY           SKY/WX    TMP DP  RH WIND       PRES   REMARKS
LA GUARDIA NY  PTSUNNY   36  20  52 SW18G24   30.02F
RALEIGH NC     FAIR      45  21  38 NW9       30.25F
ATLANTA GA     PTSUNNY   46  27  47 VRB5      30.29F
NEW ORLEANS LA PTSUNNY   52  39  61 NE9       30.28F
OKLAHOMA CITY  FAIR      50  26  39 S16       30.00F
ALBUQUERQUE NM FAIR      34  17  50 W6        29.92F
SALT LAKE CITY LGT SNOW  33  30  88 N10       29.91R VSB 1   WCI  25
LOS ANGELES CA FAIR      60  47  61 E9        29.73S
BOISE ID       FAIR      26  22  84 NW9       30.11R WCI  17
SEATTLE WA     CLOUDY    40  38  93 SE6       30.32R
$$

*** WEATHER ACROSS MANITOBA...SASKATCHEWAN AND ONTARIO ***
                ***ONTARIO***

CITY           SKY/WX    TMP DP  RH WIND       PRES   REMARKS
GERALDTON      MOSUNNY  -11 -17  77 W2        30.10R
THUNDER BAY    CLOUDY     0  -8  71 SW6       30.12S WCI -12
SIOUX LOOKOUT  PTSUNNY   -6 -11  77 SE6       30.01S WCI -18
TORONTO        PTSUNNY   21  14  73 N13       29.98R WCI   9
BIG TROUT LK   SUNNY    -17 -22  76 VRB2      30.08S
PICKLE LAKE    MOSUNNY  -15 -20  76 SE5       30.05S WCI -27
DRYDEN         CLOUDY    -6  -9  84 E6        29.97R WCI -18
KENORA         FLURRIES   1  -2  85 SE7       29.92  WCI -11
$$
                *** MANITOBA***

CITY           SKY/WX    TMP DP  RH WIND       PRES   REMARKS
BRANDON        PTSUNNY   18  16  93 SW7       29.85R WCI   8
DAUPHIN        MOSUNNY   14  10  85 S3        29.83R
ISLAND LAKE    PTSUNNY  -11 -17  77 SE10      30.00S WCI -30
PILOT MOUND      N/A     23  19  86 NW12G18     N/A  WCI  12
THE PAS        CLOUDY     7   1  78 SE10      29.78S WCI  -8
THOMPSON       MOCLDY    -8 -11  84 S5        29.89F WCI -19
WINNIPEG       FLURRIES  10   7  85 SE7       29.90R WCI   0
LYNN LAKE      FLURRIES  -6  -8  92 S5        29.77S WCI -17
CHURCHILL      PTCLDY   -24 -31  69 SW6       30.00S WCI -40
GILLAM         MOCLDY    -9 -15  77 S5        29.99F WCI -21
$$
                ***SASKATCHEWAN***

CITY           SKY/WX    TMP DP  RH WIND       PRES   REMARKS
ESTEVAN        MOSUNNY   30  23  74 W14       29.88R WCI  20
KINDERSLEY     PTCLDY    25  16  68 W14       29.89R WCI  13
LLOYDMINSTER   MOCLDY    28  21  74 W15G21    29.79R WCI  17
PRINCE ALBERT  LGT SNOW  25  23  93 W8        29.74R WCI  16
REGINA         MOSUNNY   27  19  74 W14       29.86R WCI  15
YORKTON        SUNNY     23  21  93 W10       29.78R W


USA.gov is the U.S. government's official web portal to all federal, state and local government web resources and services.